カタログに戻る

DMSP 5D-2 F13 DEB

運用中SSO
NORAD 40490·DEBRIS·🇺🇸 United States

打ち上げ Mar 24, 1995 から Vandenberg Space Force Base

Loading…

次のパス (今後24時間)

TLE

最新Source: Space-Track

元期: Sep 14, 2026, 04:19 UTC

1 40490U 95015CD  26257.18009003  .00001790  00000-0  13013-2 0  9997
2 40490  98.7778  28.6445 0153875 289.1249  69.3307 13.92060006581018

AllMySatでDMSP 5D-2 F13 DEBをリアルタイム追跡

Download on the App Store